#timestamp,LO_Frequency,Hit,StdDev 
1588093215.9,286047001.2,N
1588093235.7,286047000.4,N
1588093255.6,286047000.0,N
1588093275.4,286047000.3,N
1588093295.3,286046998.1,N
1588093315.1,286046999.0,N
1588093316.0,286046999.0,N
1588093335.8,286046996.8,Y
1588093355.7,286046998.0,P
1588093375.5,286046997.6,N
1588093395.3,286046999.6,N
1588093415.2,286046997.4,N
1588093435.0,286046996.6,Y
1588093435.9,286046996.6,P
1588093455.8,286046998.8,N
1588093475.6,286046998.9,N
1588093495.4,286046998.7,N
1588093515.3,286046998.2,N
1588093535.1,286046998.9,N
1588093555.9,286046997.6,Y
1588093575.7,286046999.5,P
1588093595.5,286046995.4,P
1588093615.4,286046996.7,N
1588093635.2,286046997.5,N
1588093655.1,286046997.7,N
1588093656.0,286046997.7,N
1588093675.8,286046997.4,N
1588093695.6,286046997.8,N
1588093715.5,286046999.6,N
1588093735.3,286046997.9,N
1588093755.1,286046997.1,N
1588093775.9,286046997.6,N
1588093795.7,286046996.3,Y
1588093815.6,286046996.8,P
1588093835.4,286046997.2,P
1588093855.2,286046996.7,P
1588093875.1,286046996.5,Y
1588093876.0,286046996.5,P
1588093895.8,286046998.3,P
1588093915.7,286046999.3,N
1588093935.5,286046999.1,N
1588093955.3,286046996.5,Y
1588093975.2,286047000.2,P
1588093995.0,286046999.9,N
1588093995.9,286046999.9,N
1588094015.8,286047002.0,N
1588094035.6,286047002.3,N
1588094055.4,286047002.7,N
1588094075.3,286047000.5,N
1588094095.1,286047000.6,N
1588094115.8,286047000.2,N
1588094135.7,286047000.2,N
1588094155.5,286047000.0,N
1588094175.4,286047000.2,N
1588094195.2,286047000.9,N
1588094215.0,286047000.6,N
1588094215.9,286047000.6,N
1588094235.8,286047000.3,N
1588094255.6,286047000.3,N
1588094275.4,286047001.2,N
1588094295.3,286046999.3,N
1588094315.1,286046998.7,N
1588094335.9,286047001.0,N
1588094355.7,286046999.9,N
1588094375.5,286046999.8,N
1588094395.4,286047000.3,N
1588094415.2,286047000.4,N
1588094435.0,286047000.1,N
1588094436.0,286047000.1,N
1588094455.8,286047002.8,N
1588094475.6,286047000.6,N
1588094495.5,286046999.9,N
1588094515.3,286046999.8,N
1588094535.1,286047002.8,Y
1588094555.9,286047000.6,P
1588094575.7,286047001.1,P
1588094595.6,286046999.1,P
1588094615.4,286046998.7,N
1588094635.2,286046998.5,N
1588094655.1,286047002.8,N
1588094656.0,286047002.8,N
1588094675.8,286046999.7,N
1588094695.6,286047000.0,N
1588094715.5,286046999.7,N
1588094735.3,286047002.8,N
1588094755.2,286047000.9,N
1588094775.9,286047000.6,N
1588094795.7,286047002.8,N
1588094815.6,286047000.8,N
1588094835.4,286047001.1,N
1588094855.2,286047000.0,N
1588094875.1,286047000.7,N
1588094876.0,286047000.7,N
1588094895.8,286047001.5,N
1588094915.7,286047002.3,N
1588094935.5,286047001.8,N
1588094955.3,286047002.2,N
1588094975.2,286047002.5,N
1588094995.0,286046999.7,N
1588094995.9,286046999.7,N
1588095015.8,286047001.8,N
1588095035.6,286047004.3,Y
1588095055.4,286047001.5,P
1588095075.3,286047002.1,P
1588095095.1,286047001.6,P
1588095115.9,286047002.2,Y
1588095135.7,286047001.2,P
1588095155.5,286047000.7,P
1588095175.4,286047000.7,N
1588095195.2,286047001.0,N
1588095215.0,286047000.7,N
1588095216.0,286047000.7,N
1588095235.8,286047000.6,N
1588095255.6,286047002.3,Y
1588095275.5,286047000.8,P
1588095295.3,286047000.6,P
1588095315.1,286047001.2,P
1588095335.9,286047000.8,Y
1588095355.7,286046998.2,P
1588095375.6,286046998.5,N
1588095395.4,286047001.2,N
1588095415.2,286047000.3,N
1588095435.1,286046999.7,N
1588095436.0,286046999.7,N
1588095455.8,286046999.7,N
1588095475.7,286047000.3,N
1588095495.5,286047002.4,N
1588095515.3,286046999.8,N
1588095535.2,286047002.6,N
1588095555.9,286047002.3,N
1588095575.7,286047000.0,N
1588095595.6,286047000.1,N
1588095615.4,286047002.2,N
1588095635.3,286047002.5,N
1588095655.1,286047000.1,N
1588095656.0,286047000.1,N
1588095675.4,286047002.2,N
1588095695.2,286047002.5,N
1588095715.1,286047001.6,N
1588095716.0,286047001.6,N
1588095735.8,286047002.4,N
1588095755.6,286047002.7,N
1588095775.5,286047001.9,N
1588095795.3,286047002.7,N
1588095815.2,286046999.8,N
1588095835.9,286046999.8,N
1588095855.7,286047000.7,N
1588095875.6,286047000.1,N
1588095895.4,286047002.8,N
1588095915.3,286047002.2,N
1588095935.1,286047002.8,N
1588095936.0,286047002.8,N
1588095955.8,286047005.5,Y
1588095975.7,286046999.8,P
1588095995.5,286046999.7,N
1588096015.4,286047002.4,P
1588096035.2,286047002.4,N
1588096055.0,286047002.5,N
1588096055.9,286047002.5,N
1588096075.8,286047001.7,N
1588096095.6,286047002.0,N
1588096115.5,286047001.5,N
1588096135.3,286047002.1,N
1588096155.1,286047001.5,N
1588096175.9,286047001.3,N
1588096195.7,286047004.4,Y
1588096215.6,286047000.1,P
1588096235.4,286046999.9,N
1588096255.2,286047000.2,N
1588096275.1,286047002.1,Y
1588096276.0,286047002.1,P
1588096295.8,286046999.7,N
1588096315.6,286047002.8,N
1588096335.5,286047002.3,N
1588096355.3,286047001.5,N
1588096375.2,286047002.4,N
1588096395.9,286047001.8,N
1588096415.7,286047002.1,N
1588096435.6,286046999.8,N
1588096455.4,286047000.6,N
1588096475.3,286047002.2,N
1588096495.1,286047002.6,N
1588096496.0,286047002.6,N
1588096515.8,286047001.5,N
1588096535.7,286047001.7,N
1588096555.5,286047001.7,N
1588096575.4,286047002.0,N
1588096595.2,286047001.5,N
1588096615.0,286047001.6,N
1588096615.9,286047001.6,N
1588096635.8,286047001.7,N
1588096655.6,286047001.5,N
1588096675.4,286047002.2,N
1588096695.3,286047001.7,N
1588096715.1,286047002.4,Y
1588096735.9,286046998.1,P
1588096755.7,286047000.5,N
1588096775.5,286047000.0,N
1588096795.4,286047002.7,N
